Baraboo, WI

6:54 AM CST on January 16, 2017 (GMT -0600)
Baraboo Wisconsin Dells

Weather History for KDLL - March, 2014

Change the Weather History Date:

Friday, March 28, 2014

  Actual Average Record
Temperature  
Mean Temperature 37 °F -  
Max Temperature 44 °F 51 °F 80 °F (1986)
Min Temperature 31 °F 29 °F 7 °F (1955)
Degree Days  
Heating Degree Days 28    
Moisture  
Dew Point 28 °F    
Average Humidity 75    
Maximum Humidity 97    
Minimum Humidity 45    
Precipitation  
Precipitation 0.00 in - - ()
Sea Level Pressure  
Sea Level Pressure 29.92 in    
Wind  
Wind Speed 8 mph (NNW)    
Max Wind Speed 17 mph    
Max Gust Speed 24 mph    
Visibility 10 miles    
Events Rain    
Averages and records for this station are not official NWS values.
T = Trace of Precipitation, MM = Missing Value Source: NWS Daily Summary

Daily Weather History Graph

Daily Weather History Graph

Search for Another Location

Airport or City:

Trip Planner

Search our weather history database for the weather conditions in past years. The results will help you decide how hot, cold, wet, or windy it might be!

Date:

Astronomy

Mar. 28, 2014 Rise Set
Actual Time 6:47 AM CDT 7:21 PM CDT
Civil Twilight 6:19 AM CDT 7:49 PM CDT
Nautical Twilight 5:45 AM CDT 8:23 PM CDT
Astronomical Twilight 5:10 AM CDT 8:59 PM CDT
Moon 5:22 AM CDT (3/28) 5:14 PM CDT (3/28)
Length of Visible Light 13h 30m
Length of Day
12h 33m
Waning Crescent, 6% of the Moon is Illuminated
Mar 28
Waning Crescent
Mar 30
New
Apr 7
First Quarter
Apr 15
Full
Apr 22
Last Quarter

Hourly Weather History & Observations

Time (CDT) Temp. Windchill Dew Point Humidity Pressure Visibility Wind Dir Wind Speed Gust Speed Precip Events Conditions
12:15 AM 36.5 °F 31.8 °F 35.6 °F 97% 29.44 in 5.0 mi North 5.8 mph - N/A   Light Drizzle
12:35 AM 36.1 °F 28.7 °F 35.2 °F 97% 29.45 in 5.0 mi NNW 10.4 mph - N/A Rain Light Rain
12:55 AM 35.6 °F 28.0 °F 34.7 °F 97% 29.47 in 10.0 mi North 10.4 mph 16.1 mph N/A   Light Drizzle
1:15 AM 34.9 °F 27.7 °F 34.0 °F 97% 29.49 in 10.0 mi NNW 9.2 mph - N/A Rain Light Rain
1:35 AM 34.3 °F 25.5 °F 33.4 °F 97% 29.51 in 10.0 mi North 12.7 mph 17.3 mph N/A Rain Light Rain
1:55 AM 33.8 °F 24.8 °F 32.9 °F 96% 29.52 in 10.0 mi NNW 12.7 mph 19.6 mph N/A Rain Light Rain
2:15 AM 33.1 °F 24.4 °F 32.2 °F 96% 29.55 in 7.0 mi NNW 11.5 mph 18.4 mph N/A Rain Light Rain
2:35 AM 33.3 °F 24.6 °F 32.2 °F 96% 29.56 in 10.0 mi NNW 11.5 mph 18.4 mph N/A   Overcast
2:55 AM 33.8 °F 24.8 °F 32.5 °F 95% 29.57 in 10.0 mi NNW 12.7 mph 18.4 mph N/A   Overcast
3:15 AM 33.8 °F 25.3 °F 32.5 °F 95% 29.59 in 10.0 mi NNW 11.5 mph 19.6 mph N/A   Overcast
3:35 AM 34.0 °F 26.0 °F 32.5 °F 94% 29.60 in 10.0 mi NNW 10.4 mph - N/A   Overcast
3:55 AM 34.2 °F 26.2 °F 32.5 °F 94% 29.62 in 10.0 mi NNW 10.4 mph 20.7 mph N/A   Overcast
4:15 AM 34.3 °F 27.7 °F 32.4 °F 92% 29.63 in 10.0 mi NNW 8.1 mph 16.1 mph N/A   Overcast
4:35 AM 34.2 °F 25.7 °F 32.0 °F 92% 29.66 in 10.0 mi NW 11.5 mph 17.3 mph N/A   Overcast
4:55 AM 33.8 °F 26.4 °F 31.8 °F 92% 29.69 in 10.0 mi NNW 9.2 mph 16.1 mph N/A   Overcast
5:15 AM 33.1 °F 23.4 °F 30.2 °F 89% 29.71 in 10.0 mi NNW 13.8 mph 18.4 mph N/A   Overcast
5:35 AM 32.4 °F 22.1 °F 29.1 °F 88% 29.74 in 10.0 mi NNW 15.0 mph 23.0 mph N/A   Overcast
5:55 AM 32.0 °F 20.8 °F 28.2 °F 86% 29.77 in 10.0 mi NW 17.3 mph 23.0 mph N/A   Overcast
6:15 AM 32.0 °F 22.5 °F 27.3 °F 83% 29.79 in 10.0 mi NW 12.7 mph 21.9 mph N/A   Overcast
6:35 AM 32.0 °F 23.6 °F 26.6 °F 80% 29.81 in 10.0 mi NNW 10.4 mph 20.7 mph N/A   Overcast
6:55 AM 31.8 °F 22.8 °F 27.3 °F 83% 29.82 in 10.0 mi NNW 11.5 mph 20.7 mph N/A   Overcast
7:15 AM 31.6 °F 23.1 °F 27.0 °F 83% 29.84 in 10.0 mi NNW 10.4 mph 24.2 mph N/A   Overcast
7:35 AM 31.5 °F 21.8 °F 26.6 °F 82% 29.87 in 10.0 mi NW 12.7 mph 18.4 mph N/A   Overcast
7:55 AM 31.5 °F 24.2 °F 26.2 °F 81% 29.89 in 10.0 mi NNW 8.1 mph 16.1 mph N/A   Overcast
8:15 AM 31.1 °F 21.9 °F 26.2 °F 82% 29.89 in 10.0 mi NW 11.5 mph 17.3 mph N/A   Overcast
8:35 AM 31.1 °F 20.9 °F 25.5 °F 80% 29.90 in 10.0 mi NNW 13.8 mph 19.6 mph N/A   Overcast
8:55 AM 31.3 °F 23.3 °F 25.5 °F 79% 29.91 in 10.0 mi North 9.2 mph - N/A   Overcast
9:15 AM 31.5 °F 24.9 °F 25.5 °F 79% 29.93 in 10.0 mi NNW 6.9 mph - N/A   Overcast
9:35 AM 31.5 °F 22.9 °F 25.3 °F 78% 29.94 in 10.0 mi NNW 10.4 mph 17.3 mph N/A   Overcast
9:55 AM 31.8 °F 23.3 °F 25.2 °F 76% 29.95 in 10.0 mi NNW 10.4 mph - N/A   Overcast
10:15 AM 32.0 °F 23.0 °F 24.8 °F 75% 29.96 in 10.0 mi North 11.5 mph 16.1 mph N/A   Overcast
10:35 AM 32.0 °F 23.6 °F 25.0 °F 75% 29.97 in 10.0 mi North 10.4 mph - N/A   Overcast
10:55 AM 32.0 °F 24.8 °F 24.4 °F 74% 29.98 in 10.0 mi NNW 8.1 mph - N/A   Overcast
11:15 AM 32.7 °F 25.7 °F 25.2 °F 74% 30.00 in 10.0 mi NW 8.1 mph - N/A   Overcast
11:35 AM 33.3 °F 27.9 °F 25.5 °F 73% 30.01 in 10.0 mi NW 5.8 mph - N/A   Overcast
11:55 AM 34.5 °F 30.4 °F 25.5 °F 70% 30.00 in 10.0 mi North 4.6 mph - N/A   Mostly Cloudy
12:15 PM 35.6 °F 31.7 °F 25.7 °F 67% 29.99 in 10.0 mi North 4.6 mph - N/A   Mostly Cloudy
12:35 PM 36.0 °F 33.3 °F 25.5 °F 66% 30.00 in 10.0 mi NNE 3.5 mph - N/A   Mostly Cloudy
12:55 PM 37.8 °F - 25.9 °F 62% 30.00 in 10.0 mi Calm Calm - N/A   Mostly Cloudy
1:15 PM 39.0 °F 35.7 °F 25.3 °F 58% 30.02 in 10.0 mi NNW 4.6 mph - N/A   Scattered Clouds
1:35 PM 40.3 °F 35.5 °F 26.1 °F 57% 30.04 in 10.0 mi North 6.9 mph - N/A   Clear
1:55 PM 40.6 °F 37.5 °F 25.9 °F 56% 30.04 in 10.0 mi NNE 4.6 mph 16.1 mph N/A   Clear
2:15 PM 41.4 °F 37.6 °F 25.5 °F 53% 30.04 in 10.0 mi North 5.8 mph - N/A   Clear
2:35 PM 42.1 °F 38.4 °F 25.0 °F 51% 30.04 in 10.0 mi North 5.8 mph - N/A   Clear
2:55 PM 42.6 °F 39.0 °F 25.7 °F 51% 30.05 in 10.0 mi ENE 5.8 mph - N/A   Clear
3:15 PM 43.5 °F 41.9 °F 25.5 °F 49% 30.05 in 10.0 mi NW 3.5 mph - N/A   Clear
3:35 PM 43.0 °F - 25.3 °F 50% 30.05 in 10.0 mi Calm Calm - N/A   Clear
3:55 PM 43.5 °F 41.9 °F 24.8 °F 48% 30.06 in 10.0 mi ENE 3.5 mph - N/A   Clear
4:15 PM 43.9 °F - 23.9 °F 45% 30.07 in 10.0 mi Calm Calm - N/A   Clear
4:35 PM 43.5 °F - 23.9 °F 46% 30.07 in 10.0 mi Calm Calm - N/A   Clear
4:55 PM 43.2 °F - 23.5 °F 46% 30.08 in 10.0 mi Calm Calm - N/A   Clear
5:15 PM 43.0 °F - 25.2 °F 49% 30.09 in 10.0 mi Calm Calm - N/A   Clear
5:35 PM 42.8 °F - 24.6 °F 49% 30.09 in 10.0 mi Calm Calm - N/A   Scattered Clouds
5:55 PM 43.0 °F 41.3 °F 24.6 °F 48% 30.09 in 10.0 mi NNE 3.5 mph - N/A   Scattered Clouds
6:15 PM 41.9 °F 40.0 °F 25.3 °F 52% 30.10 in 10.0 mi NE 3.5 mph - N/A   Clear
6:35 PM 41.4 °F - 25.0 °F 52% 30.10 in 10.0 mi Calm Calm - N/A   Clear
6:55 PM 40.1 °F - 28.0 °F 62% 30.11 in 10.0 mi Calm Calm - N/A   Clear
7:15 PM 39.0 °F - 28.9 °F 67% 30.12 in 10.0 mi Calm Calm - N/A   Clear
7:35 PM 38.3 °F - 29.5 °F 71% 30.12 in 10.0 mi Calm Calm - N/A   Clear
7:55 PM 37.9 °F 34.4 °F 28.6 °F 69% 30.13 in 10.0 mi ESE 4.6 mph - N/A   Clear
8:15 PM 35.8 °F 30.9 °F 29.5 °F 78% 30.15 in 10.0 mi SSE 5.8 mph - N/A   Mostly Cloudy
8:35 PM 35.1 °F 30.1 °F 29.7 °F 81% 30.16 in 10.0 mi South 5.8 mph - N/A   Mostly Cloudy
8:55 PM 35.6 °F 31.7 °F 28.9 °F 77% 30.15 in 10.0 mi South 4.6 mph - N/A   Scattered Clouds
9:15 PM 34.9 °F 32.0 °F 28.8 °F 78% 30.15 in 10.0 mi SSW 3.5 mph - N/A   Clear
9:35 PM 34.3 °F 31.4 °F 28.8 °F 80% 30.15 in 10.0 mi SE 3.5 mph - N/A   Clear
9:55 PM 34.0 °F 31.0 °F 28.4 °F 80% 30.14 in 10.0 mi SE 3.5 mph - N/A   Scattered Clouds
10:15 PM 33.8 °F - 28.4 °F 81% 30.14 in 10.0 mi Calm Calm - N/A   Scattered Clouds
10:35 PM 33.8 °F - 28.2 °F 80% 30.14 in 10.0 mi Calm Calm - N/A   Overcast
10:55 PM 32.9 °F - 28.4 °F 84% 30.14 in 10.0 mi Calm Calm - N/A   Overcast
11:15 PM 33.1 °F - 27.9 °F 81% 30.14 in 10.0 mi Calm Calm - N/A   Mostly Cloudy
11:35 PM 32.0 °F - 27.5 °F 83% 30.15 in 10.0 mi Calm Calm - N/A   Scattered Clouds
11:55 PM 32.0 °F 28.7 °F 27.5 °F 83% 30.15 in 10.0 mi East 3.5 mph - N/A   Scattered Clouds